Location: Perryvale
(54.4667°N, 113.3833°W)
Time: 21:13:59
(UTC+00:00)

Transit 2A - Pass Details

Date: 24 May 2024
Orbit: 592 x 959 km, 66.7° (Epoch: 19 June)

Event Time Altitude Azimuth Distance (km) Brightness Sun altitude
Rises 08:44:36 0° 271° (W) 3,077 9.0 -13.0°
Reaches altitude 10° 08:47:10 10° 284° (WNW) 2,221 8.4 -12.9°
Maximum altitude 08:51:30 27° 342° (NNW) 1,451 8.1 -12.7°
Drops below altitude 10° 08:56:14 10° 40° (NE) 2,440 9.8 -12.4°
Sets 08:59:12 0° 52° (NE) 3,441 10.5 -12.3°
